Location: Highland Meadows Observing Site
(48.4428°N, 114.5461°W)
Time: 20:37:43
(UTC-06:00)

Amateur Radio Satellites - All Passes

Search period start: 25 July 2016 20:07
Search period end: 26 July 2016 20:07
Location: Highland Meadows Observing Site, 48.4428°N, 114.5461°W

Satellite Date Start Highest point End Downlink Frequencies (MHz)
Time Altitude Azimuth
CUTE-I 25 Jul 20:08:55 20:13:23 26° 267° (W) 20:17:52 437.470
CUBEBUG 2 25 Jul 20:13:29 20:16:55 21° 61° (ENE) 20:20:25 437.445
PHONESAT 2.4 25 Jul 20:16:23 20:18:31 17° 172° (S) 20:20:39 2401.200-2431.200
COMPASS 1 25 Jul 20:16:54 20:20:22 25° 65° (ENE) 20:23:49 437.405
CUBESAT XI-V 25 Jul 20:18:21 20:22:03 24° 297° (WNW) 20:25:45 437.345
Cosmos 2499 25 Jul 20:19:31 20:22:44 12° 315° (NW) 20:25:55 435.465 / 435.565
YUBILEINY 25 Jul 20:24:47 20:32:14 29° 61° (ENE) 20:39:36 435.215
CINEMA 3 25 Jul 20:30:15 20:34:46 78° 73° (ENE) 20:39:33 145.822/145.860
NOAA 18 25 Jul 20:31:43 20:35:25 18° 271° (W) 20:39:09 137.9125
BEESAT 3 25 Jul 20:35:37 20:39:33 89° 290° (WNW) 20:43:32 437.485
NOAA 15 25 Jul 20:38:01 20:39:46 12° 274° (W) 20:41:32 137.62
BEESAT 2 25 Jul 20:38:23 20:42:15 56° 123° (ESE) 20:46:10 435.950
CANX-2 25 Jul 20:40:28 20:44:46 89° 257° (WSW) 20:49:05 2200.000
Oscar 11 25 Jul 20:44:51 20:47:56 19° 62° (ENE) 20:51:01 145.826/435.025
AAUSAT CUBESAT 2 25 Jul 20:46:25 20:50:17 39° 69° (ENE) 20:54:10 437.432
M-CUBED/EXP-1 PRIME 25 Jul 20:52:43 20:54:55 15° 51° (NE) 20:57:12 437.505
CUTE 1.7 + AOD 2 25 Jul 20:54:17 20:58:33 74° 258° (WSW) 21:02:50 437.475
AO-85 25 Jul 20:59:38 21:01:55 13° 15° (NNE) 21:04:07 145.980
STRAND 1 25 Jul 21:05:49 21:10:58 76° 104° (ESE) 21:16:04 437.568
O/OREOS (USA 219) 25 Jul 21:07:39 21:10:42 18° 101° (E) 21:13:46 437.305
HO-68 25 Jul 21:07:45 21:14:50 61° 258° (WSW) 21:22:00 435.675
Cosmos 2504 25 Jul 21:16:24 21:22:18 20° 54° (NE) 21:27:54 435.465 / 435.565
AUBIESAT-1 25 Jul 21:19:18 21:22:17 21° 55° (NE) 21:25:26 437.475
DELFI C3 25 Jul 21:24:08 21:27:01 19° 63° (ENE) 21:29:54 145.870
UWE-3 25 Jul 21:29:52 21:34:26 70° 73° (ENE) 21:39:06 435.000/436.395/437.385
HUMSAT D 25 Jul 21:30:04 21:32:13 14° 58° (ENE) 21:34:22 437.325/437.525
ZACube-1 25 Jul 21:34:21 21:38:45 53° 72° (ENE) 21:43:16 437.345
FUNcube-1 25 Jul 21:34:23 21:38:46 50° 70° (ENE) 21:43:13 145.935
SEEDS 25 Jul 21:37:01 21:40:56 37° 263° (W) 21:44:53 437.485
PCSat 25 Jul 21:37:09 21:42:33 69° 307° (NW) 21:48:01 145.827
CUBEBUG 2 25 Jul 21:48:37 21:53:08 57° 260° (W) 21:57:48 437.445
COMPASS 1 25 Jul 21:51:56 21:55:47 35° 263° (W) 21:59:39 437.405
PHONESAT 2.4 25 Jul 21:52:18 21:54:25 17° 189° (S) 21:56:31 2401.200-2431.200
Cosmos 2491 25 Jul 21:52:18 21:59:57 36° 84° (E) 22:07:36 435.465 / 435.565
CINEMA 3 25 Jul 22:10:14 22:12:35 14° 274° (W) 22:14:57 145.822/145.860
BEESAT 3 25 Jul 22:15:05 22:17:48 18° 329° (NNW) 22:20:33 437.485
BEESAT 2 25 Jul 22:17:06 22:20:22 24° 323° (NW) 22:23:40 435.950
Oscar 11 25 Jul 22:19:25 22:23:42 55° 260° (W) 22:28:00 145.826/435.025
PRISM 25 Jul 22:19:36 22:23:40 63° 102° (ESE) 22:27:43 437.425
CANX-2 25 Jul 22:20:54 22:21:17 10° 274° (W) 22:21:40 2200.000
YUBILEINY 25 Jul 22:21:11 22:30:03 79° 264° (W) 22:38:51 435.215
AAUSAT CUBESAT 2 25 Jul 22:22:40 22:25:56 22° 267° (W) 22:29:12 437.432
M-CUBED/EXP-1 PRIME 25 Jul 22:25:03 22:28:50 75° 252° (WSW) 22:32:58 437.505
AIST 2 25 Jul 22:25:28 22:29:17 38° 120° (ESE) 22:33:09 435.215
AO-85 25 Jul 22:39:35 22:43:49 34° 39° (NE) 22:47:43 145.980
TIGRISAT 25 Jul 22:43:04 22:44:55 12° 86° (E) 22:46:45 435.000
O/OREOS (USA 219) 25 Jul 22:45:17 22:49:41 57° 300° (WNW) 22:54:07 437.305
STRAND 1 25 Jul 22:46:06 22:49:35 19° 303° (WNW) 22:53:03 437.568
AISAT 25 Jul 22:49:24 22:50:57 12° 55° (NE) 22:52:31 437.250
AUBIESAT-1 25 Jul 22:52:45 22:56:26 46° 256° (WSW) 23:00:26 437.475
DELFI C3 25 Jul 22:57:47 23:01:36 44° 261° (W) 23:05:26 145.870
UNISAT 6 25 Jul 22:57:50 23:01:02 18° 90° (E) 23:04:11 437.425
HO-68 25 Jul 23:01:45 23:04:04 12° 278° (W) 23:06:23 435.675
HUMSAT D 25 Jul 23:02:55 23:07:14 82° 257° (WSW) 23:11:35 437.325/437.525
UWE-3 25 Jul 23:08:40 23:11:24 15° 272° (W) 23:14:10 435.000/436.395/437.385
Cosmos 2504 25 Jul 23:08:55 23:17:19 80° 79° (E) 23:25:03 435.465 / 435.565
UKube-1 25 Jul 23:11:42 23:12:57 11° 55° (NE) 23:14:13 .
FUNcube-1 25 Jul 23:11:51 23:15:17 21° 269° (W) 23:18:45 145.935
ZACube-1 25 Jul 23:12:02 23:15:21 20° 269° (W) 23:18:45 437.345
50 SAT 25 Jul 23:13:06 23:15:10 14° 61° (ENE) 23:17:12 437.505
ESTCUBE 1 25 Jul 23:15:04 23:18:56 29° 65° (ENE) 23:22:49 437.505/2401.250
PCSat 25 Jul 23:23:04 23:26:58 20° 330° (NNW) 23:30:53 145.827
ISS 25 Jul 23:30:35 23:33:41 42° 148° (SSE) 23:36:48 145.825
ANTELSAT 25 Jul 23:35:34 23:39:59 39° 97° (E) 23:44:17 437.575/2403.000
VELOX 1 25 Jul 23:38:22 23:42:10 29° 65° (ENE) 23:46:00 145.980
CUBEBUG 1 25 Jul 23:43:29 23:47:24 36° 67° (ENE) 23:51:23 437.445
SPROUT 25 Jul 23:46:08 23:49:01 18° 61° (ENE) 23:51:57 437.525
Cosmos 2491 25 Jul 23:47:50 23:56:23 59° 286° (WNW) 00:05:01 435.465 / 435.565
PRISM 25 Jul 23:56:05 23:58:33 16° 300° (WNW) 00:00:59 437.425
AIST 2 26 Jul 00:04:08 00:07:51 32° 320° (NW) 00:11:37 435.215
TIGRISAT 26 Jul 00:17:35 00:22:17 88° 292° (WNW) 00:26:53 435.000
YUBILEINY 26 Jul 00:19:50 00:25:21 19° 287° (WNW) 00:30:53 435.215
AO-85 26 Jul 00:20:10 00:24:20 39° 241° (WSW) 00:28:11 145.980
AISAT 26 Jul 00:22:18 00:26:41 81° 75° (ENE) 00:31:07 437.250
DX 1 26 Jul 00:27:27 00:31:44 66° 73° (ENE) 00:36:03 434.975-435.025
NANOSAT C BR1 26 Jul 00:27:48 00:31:09 22° 93° (E) 00:34:30 145.865
O/OREOS (USA 219) 26 Jul 00:28:50 00:30:08 11° 322° (NW) 00:31:25 437.305
DUCHIFAT 1 26 Jul 00:32:46 00:36:13 23° 93° (E) 00:39:38 145.980
UNISAT 6 26 Jul 00:33:32 00:38:10 60° 288° (WNW) 00:42:40 437.425
UKube-1 26 Jul 00:43:58 00:48:15 78° 73° (ENE) 00:52:36 .
50 SAT 26 Jul 00:44:48 00:48:24 54° 259° (W) 00:52:00 437.505
TISAT 1 26 Jul 00:46:54 00:49:55 19° 62° (ENE) 00:52:57 437.305
QB50P1 26 Jul 00:48:54 00:52:54 37° 97° (E) 00:56:53 145.935-145.965
ESTCUBE 1 26 Jul 00:51:32 00:55:40 35° 263° (W) 00:59:48 437.505/2401.250
BUGSAT 1 26 Jul 00:53:54 00:56:53 18° 91° (E) 00:59:50 437.445
POPSAT HIP 1 26 Jul 00:55:08 00:59:15 42° 98° (E) 01:03:19 437.405
Cosmos 2504 26 Jul 01:03:28 01:09:41 24° 282° (WNW) 01:15:35 435.465 / 435.565
ISS 26 Jul 01:06:52 01:10:05 56° 347° (NNW) 01:13:19 145.825
AIST 1 26 Jul 01:06:57 01:11:08 45° 76° (ENE) 01:15:18
PCSat 26 Jul 01:11:30 01:12:39 11° 356° (N) 01:13:49 145.827
ANTELSAT 26 Jul 01:12:34 01:16:32 28° 296° (WNW) 01:20:26 437.575/2403.000
VELOX 1 26 Jul 01:14:36 01:18:34 33° 263° (W) 01:22:35 145.980
QB50P2 26 Jul 01:15:35 01:19:55 73° 103° (ESE) 01:24:11 145.880/145.840
POLYITAN 1 26 Jul 01:18:14 01:22:34 75° 102° (ESE) 01:26:51 437.675
CUBEBUG 1 26 Jul 01:20:09 01:23:47 26° 266° (W) 01:27:27 437.445
SPROUT 26 Jul 01:20:22 01:24:34 58° 259° (W) 01:28:50 437.525
JAS-2 26 Jul 01:28:33 01:33:11 31° 96° (E) 01:38:04 435.910
SWISSCUBE 26 Jul 01:41:08 01:44:31 19° 59° (ENE) 01:47:54 437.505
AIST 2 26 Jul 01:46:30 01:47:36 11° 342° (NNW) 01:48:42 435.215
Cosmos 2491 26 Jul 01:50:45 01:55:32 15° 312° (NW) 02:00:20 435.465 / 435.565
TIGRISAT 26 Jul 01:55:57 01:58:15 14° 304° (NW) 02:00:33 435.000
Oscar 19 26 Jul 02:01:47 02:05:20 18° 90° (E) 02:08:53 437.125/150
BEESAT 26 Jul 02:01:58 02:05:55 26° 62° (ENE) 02:09:52 436.000
AISAT 26 Jul 02:02:01 02:03:47 12° 273° (W) 02:05:32 437.250
NANOSAT C BR1 26 Jul 02:03:01 02:07:04 42° 291° (WNW) 02:11:06 145.865
DX 1 26 Jul 02:05:59 02:08:23 15° 270° (W) 02:10:49 434.975-435.025
DUCHIFAT 1 26 Jul 02:08:03 02:12:03 40° 291° (WNW) 02:16:02 145.980
Cosmos 2499 26 Jul 02:13:01 02:18:59 22° 56° (NE) 02:24:36 435.465 / 435.565
TISAT 1 26 Jul 02:21:09 02:25:14 50° 260° (W) 02:29:22 437.305
UKube-1 26 Jul 02:23:07 02:24:52 12° 272° (W) 02:26:38 .
ITUPSAT 1 26 Jul 02:23:31 02:27:57 38° 67° (ENE) 02:32:24 437.325
QB50P1 26 Jul 02:24:58 02:28:32 26° 295° (WNW) 02:32:05 145.935-145.965
BUGSAT 1 26 Jul 02:28:24 02:32:32 51° 289° (WNW) 02:36:40 437.445
GONETS M04 26 Jul 02:28:31 02:36:36 38° 66° (ENE) 02:44:39
POPSAT HIP 1 26 Jul 02:31:23 02:34:49 23° 297° (WNW) 02:38:12 437.405
ISS 26 Jul 02:43:39 02:46:50 48° 8° (N) 02:50:01 145.825
AIST 1 26 Jul 02:45:17 02:48:25 20° 274° (W) 02:51:32
QB50P2 26 Jul 02:52:45 02:55:11 15° 301° (WNW) 02:57:36 145.880/145.840
POLYITAN 1 26 Jul 02:55:25 02:57:49 15° 301° (WNW) 03:00:12 437.675
PCSat 26 Jul 02:55:26 02:58:33 15° 23° (NNE) 03:01:40 145.827
MOZHAYETS 4 26 Jul 02:57:11 02:59:20 13° 56° (ENE) 03:01:29
Gurwin Techsat 1B 26 Jul 03:09:58 03:14:48 34° 96° (E) 03:19:35 435.225
BEESAT 3 26 Jul 03:12:12 03:15:41 28° 39° (NE) 03:19:08 437.485
JAS-2 26 Jul 03:13:35 03:18:27 41° 293° (WNW) 03:23:34 435.910
BEESAT 2 26 Jul 03:15:40 03:18:46 21° 34° (NE) 03:21:51 435.950
SWISSCUBE 26 Jul 03:17:06 03:21:52 65° 258° (WSW) 03:26:39 437.505
STARS 26 Jul 03:17:27 03:17:38 10° 53° (NE) 03:17:51 437.465
ITAMSAT 1 26 Jul 03:33:02 03:36:41 19° 90° (E) 03:40:20 435.822/435.867
BEESAT 26 Jul 03:38:54 03:43:29 45° 261° (W) 03:48:06 436.000
Oscar 19 26 Jul 03:40:01 03:45:10 69° 288° (WNW) 03:50:18 437.125/150
AO-7 26 Jul 03:55:30 04:01:08 19° 87° (E) 04:06:43 29.400- 29.500
ITUPSAT 1 26 Jul 04:01:41 04:05:52 30° 265° (W) 04:10:05 437.325
Cosmos 2499 26 Jul 04:05:23 04:13:29 88° 81° (E) 04:20:54 435.465 / 435.565
KKS-1 26 Jul 04:06:38 04:10:54 49° 70° (ENE) 04:15:13 437.445
CUBESAT XI-V 26 Jul 04:14:24 04:15:11 10° 54° (NE) 04:15:58 437.345
ISS 26 Jul 04:20:08 04:23:22 64° 207° (SSW) 04:26:36 145.825
GONETS M04 26 Jul 04:25:18 04:33:52 59° 269° (W) 04:42:26
MOZHAYETS 4 26 Jul 04:31:09 04:35:48 85° 74° (ENE) 04:40:27
PCSat 26 Jul 04:38:11 04:43:24 44° 46° (NE) 04:48:35 145.827
CUSAT 1 26 Jul 04:45:09 04:49:05 49° 99° (E) 04:52:13 437.405
STARS 26 Jul 04:48:47 04:53:09 67° 72° (ENE) 04:57:34 437.465
BEESAT 3 26 Jul 04:49:43 04:53:30 43° 239° (WSW) 04:57:15 437.485
Gurwin Techsat 1B 26 Jul 04:49:52 04:54:48 40° 294° (WNW) 04:59:43 435.225
BEESAT 2 26 Jul 04:53:01 04:57:01 71° 235° (SW) 05:00:59 435.950
DANDE 26 Jul 04:54:47 04:59:29 30° 96° (E) 05:03:11 436.750
AIST 2 26 Jul 05:05:15 05:08:12 18° 31° (NNE) 05:11:10 435.215
ITAMSAT 1 26 Jul 05:11:29 05:16:40 67° 289° (WNW) 05:21:48 435.822/435.867
HORYU 2 26 Jul 05:20:16 05:21:32 11° 87° (E) 05:22:49 437.375
Oscar 19 26 Jul 05:21:26 05:23:35 13° 308° (NW) 05:25:44 437.125/150
O/OREOS (USA 219) 26 Jul 05:34:18 05:36:23 13° 41° (NE) 05:38:29 437.305
KKS-1 26 Jul 05:44:27 05:47:45 20° 268° (W) 05:51:04 437.445
AO-7 26 Jul 05:46:46 05:55:13 81° 108° (ESE) 06:03:34 29.400- 29.500
CUBESAT XI-V 26 Jul 05:47:08 05:51:42 67° 73° (ENE) 05:56:18 437.345
ISS 26 Jul 05:57:45 05:59:17 13° 225° (SW) 06:00:48 145.825
Cosmos 2499 26 Jul 06:00:00 06:05:22 20° 284° (WNW) 06:10:30 435.465 / 435.565
MOZHAYETS 4 26 Jul 06:11:39 06:13:36 12° 273° (W) 06:15:34
RS-15 26 Jul 06:11:40 06:18:35 18° 95° (E) 06:25:40 29.354- 29.394
PCSat 26 Jul 06:21:47 06:26:44 37° 247° (WSW) 06:31:40 145.827
GONETS M04 26 Jul 06:25:24 06:28:40 13° 291° (WNW) 06:31:56
STARS 26 Jul 06:27:30 06:30:00 15° 271° (W) 06:32:30 437.465
CUSAT 1 26 Jul 06:29:59 06:31:09 11° 291° (WNW) 06:32:14 437.405
DANDE 26 Jul 06:37:25 06:42:12 32° 286° (WNW) 06:45:57 436.750
CUTE-I 26 Jul 06:42:26 06:45:24 15° 87° (E) 06:48:21 437.470
AIST 2 26 Jul 06:43:07 06:47:19 85° 52° (NE) 06:51:29 435.215
STRAND 1 26 Jul 06:47:35 06:51:45 25° 61° (ENE) 06:55:56 437.568
ITAMSAT 1 26 Jul 06:53:05 06:55:12 12° 309° (NW) 06:57:18 435.822/435.867
BRITE-PL 26 Jul 06:54:06 06:58:16 30° 95° (E) 07:02:41 437.365/2234.400
HORYU 2 26 Jul 06:54:15 06:58:47 90° 128° (SE) 07:03:15 437.375
NOAA 15 26 Jul 07:05:26 07:10:01 29° 95° (E) 07:14:35 137.62
NOAA 18 26 Jul 07:07:26 07:11:54 24° 93° (E) 07:16:18 137.9125
O/OREOS (USA 219) 26 Jul 07:12:10 07:16:41 69° 62° (ENE) 07:21:13 437.305
CUBESAT XI-V 26 Jul 07:26:45 07:29:34 16° 271° (W) 07:32:22 437.345
LilacSat-2 26 Jul 07:34:19 07:37:58 37° 97° (E) 07:41:34 437.200
AO-7 26 Jul 07:40:17 07:47:15 31° 310° (NW) 07:54:11 29.400- 29.500
Cubesat XI-IV 26 Jul 07:56:44 08:02:04 60° 102° (ESE) 08:07:20 437.490
Cosmos 2491 26 Jul 07:57:03 08:03:42 23° 57° (ENE) 08:10:21 435.465 / 435.565
DOVE 4 26 Jul 08:01:06 08:05:40 32° 95° (E) 08:10:20 437.250
GOMX 1 26 Jul 08:01:59 08:06:54 61° 101° (E) 08:12:08 467.674
RS-15 26 Jul 08:17:09 08:28:30 68° 119° (ESE) 08:40:29 29.354- 29.394
CUTE-I 26 Jul 08:20:47 08:26:11 87° 289° (WNW) 08:31:31 437.470
CINEMA 3 26 Jul 08:22:03 08:25:17 17° 88° (E) 08:28:31 145.822/145.860
AIST 2 26 Jul 08:23:17 08:25:11 13° 250° (WSW) 08:27:04 435.215
CANX-2 26 Jul 08:23:35 08:25:23 12° 87° (E) 08:27:10 2200.000
STRAND 1 26 Jul 08:25:36 08:30:38 53° 260° (W) 08:35:41 437.568
HO-68 26 Jul 08:31:57 08:37:27 23° 90° (E) 08:42:53 435.675
BRITE-PL 26 Jul 08:32:29 08:36:48 38° 291° (WNW) 08:41:28 437.365/2234.400
HORYU 2 26 Jul 08:32:30 08:34:40 13° 304° (NW) 08:36:50 437.375
CUTE 1.7 + AOD 2 26 Jul 08:36:41 08:39:09 15° 89° (E) 08:41:35 437.475
NOAA 15 26 Jul 08:44:59 08:49:58 44° 293° (WNW) 08:54:56 137.62
NOAA 18 26 Jul 08:47:28 08:52:56 59° 291° (WNW) 08:58:21 137.9125
O/OREOS (USA 219) 26 Jul 08:52:53 08:55:33 16° 260° (W) 08:58:13 437.305
SO-50 26 Jul 09:02:40 09:06:55 30° 116° (ESE) 09:11:08 436.795
LilacSat-2 26 Jul 09:09:05 09:12:04 21° 295° (WNW) 09:15:01 437.200
PRISM 26 Jul 09:12:19 09:16:23 75° 73° (ENE) 09:20:28 437.425
SEEDS 26 Jul 09:17:04 09:20:40 27° 95° (E) 09:24:13 437.485
UWE-3 26 Jul 09:17:59 09:19:42 12° 85° (E) 09:21:24 435.000/436.395/437.385
COMPASS 1 26 Jul 09:30:54 09:34:27 27° 94° (E) 09:37:58 437.405
YUBILEINY 26 Jul 09:32:04 09:38:58 27° 79° (ENE) 09:45:54 435.215
AO-7 26 Jul 09:35:58 09:37:21 10° 335° (NNW) 09:38:44 29.400- 29.500
CUBEBUG 2 26 Jul 09:36:06 09:40:03 26° 92° (E) 09:43:56 437.445
Cubesat XI-IV 26 Jul 09:37:32 09:41:45 24° 301° (WNW) 09:45:57 437.490
DOVE 4 26 Jul 09:38:41 09:43:24 40° 292° (WNW) 09:48:17 437.250
GOMX 1 26 Jul 09:40:54 09:44:39 22° 298° (WNW) 09:48:33 467.674
TIGRISAT 26 Jul 09:44:38 09:47:49 19° 60° (ENE) 09:51:02 435.000
Cosmos 2491 26 Jul 09:53:10 10:01:59 86° 82° (E) 10:10:47 435.465 / 435.565
CANX-2 26 Jul 09:57:32 10:01:46 74° 286° (WNW) 10:05:57 2200.000
CINEMA 3 26 Jul 09:57:54 10:02:56 73° 286° (WNW) 10:07:56 145.822/145.860
UNISAT 6 26 Jul 09:59:51 10:03:40 26° 63° (ENE) 10:07:33 437.425
AAUSAT CUBESAT 2 26 Jul 10:00:03 10:04:00 43° 98° (E) 10:07:54 437.432
CUTE-I 26 Jul 10:02:15 10:05:29 16° 306° (NW) 10:08:43 437.470
Cosmos 2504 26 Jul 10:02:48 10:06:57 14° 70° (ENE) 10:11:04 435.465 / 435.565
Oscar 11 26 Jul 10:03:24 10:06:42 21° 92° (E) 10:09:58 145.826/435.025
CUTE 1.7 + AOD 2 26 Jul 10:11:13 10:15:24 61° 287° (WNW) 10:19:33 437.475
HO-68 26 Jul 10:18:43 10:25:57 81° 290° (WNW) 10:33:09 435.675
RS-15 26 Jul 10:30:13 10:41:39 53° 327° (NNW) 10:53:38 29.354- 29.394
NOAA 18 26 Jul 10:30:26 10:32:30 12° 311° (NW) 10:34:33 137.9125
DELFI C3 26 Jul 10:32:15 10:34:57 18° 91° (E) 10:37:39 145.870
ANTELSAT 26 Jul 10:37:29 10:42:00 54° 71° (ENE) 10:46:36 437.575/2403.000
QB50P2 26 Jul 10:38:58 10:40:36 12° 57° (ENE) 10:42:14 145.880/145.840
POLYITAN 1 26 Jul 10:41:29 10:43:13 12° 57° (ENE) 10:44:58 437.675
SO-50 26 Jul 10:42:29 10:47:14 49° 316° (NW) 10:51:56 436.795
HUMSAT D 26 Jul 10:44:27 10:46:18 13° 87° (E) 10:48:09 437.325/437.525
PRISM 26 Jul 10:50:46 10:52:12 12° 271° (W) 10:53:38 437.425
UWE-3 26 Jul 10:52:11 10:56:52 89° 285° (WNW) 11:01:25 435.000/436.395/437.385
SEEDS 26 Jul 10:52:40 10:56:23 32° 292° (WNW) 11:00:06 437.485
FUNcube-1 26 Jul 10:54:44 10:59:16 63° 101° (E) 11:03:38 145.935
ZACube-1 26 Jul 10:55:05 10:59:39 67° 102° (ESE) 11:04:03 437.345
COMPASS 1 26 Jul 11:06:21 11:10:02 32° 293° (WNW) 11:13:43 437.405
CUBEBUG 2 26 Jul 11:12:20 11:16:51 43° 291° (WNW) 11:21:14 437.445
TIGRISAT 26 Jul 11:19:25 11:24:01 66° 258° (WSW) 11:28:43 435.000
NANOSAT C BR1 26 Jul 11:23:23 11:26:57 27° 65° (ENE) 11:30:33 145.865
YUBILEINY 26 Jul 11:26:02 11:34:50 78° 281° (W) 11:43:46 435.215
DUCHIFAT 1 26 Jul 11:28:06 11:31:42 28° 66° (ENE) 11:35:21 145.980
M-CUBED/EXP-1 PRIME 26 Jul 11:34:29 11:39:01 48° 104° (ESE) 11:43:35 437.505
UNISAT 6 26 Jul 11:35:43 11:40:09 44° 262° (W) 11:44:41 437.425
AAUSAT CUBESAT 2 26 Jul 11:36:07 11:39:14 21° 296° (WNW) 11:42:20 437.432
CINEMA 3 26 Jul 11:37:01 11:39:13 13° 305° (NW) 11:41:25 145.822/145.860
Oscar 11 26 Jul 11:38:56 11:43:04 44° 290° (WNW) 11:47:09 145.826/435.025
QB50P1 26 Jul 11:44:39 11:48:42 44° 69° (ENE) 11:52:47 145.935-145.965
JAS-2 26 Jul 11:45:53 11:50:17 23° 60° (ENE) 11:54:26 435.910
BUGSAT 1 26 Jul 11:47:17 11:50:23 21° 63° (ENE) 11:53:31 437.445
Cosmos 2504 26 Jul 11:49:50 11:58:31 62° 92° (E) 12:07:09 435.465 / 435.565
POPSAT HIP 1 26 Jul 11:50:55 11:55:01 50° 71° (ENE) 11:59:11 437.405
Cosmos 2491 26 Jul 11:51:18 11:57:43 24° 283° (WNW) 12:04:10 435.465 / 435.565
AUBIESAT-1 26 Jul 12:01:26 12:06:04 71° 108° (ESE) 12:10:43 437.475
DELFI C3 26 Jul 12:06:17 12:10:03 45° 289° (WNW) 12:13:49 145.870
HO-68 26 Jul 12:07:34 12:12:41 22° 311° (NW) 12:17:48 435.675
AISAT 26 Jul 12:10:39 12:12:21 12° 87° (E) 12:14:02 437.250
QB50P2 26 Jul 12:11:27 12:15:43 87° 79° (E) 12:20:02 145.880/145.840
POLYITAN 1 26 Jul 12:14:05 12:18:22 89° 62° (ENE) 12:22:41 437.675
ANTELSAT 26 Jul 12:15:35 12:19:02 20° 269° (W) 12:22:32 437.575/2403.000
HUMSAT D 26 Jul 12:18:14 12:22:28 72° 286° (WNW) 12:26:36 437.325/437.525
SO-50 26 Jul 12:25:45 12:28:49 16° 338° (NNW) 12:31:52 436.795
UWE-3 26 Jul 12:30:17 12:32:36 14° 303° (WNW) 12:34:53 435.000/436.395/437.385
FUNcube-1 26 Jul 12:31:59 12:35:02 18° 300° (WNW) 12:38:02 145.935
ZACube-1 26 Jul 12:32:28 12:35:25 17° 300° (WNW) 12:38:19 437.345
ESTCUBE 1 26 Jul 12:39:49 12:43:58 36° 97° (E) 12:48:06 437.505/2401.250
RS-15 26 Jul 12:46:40 12:57:34 37° 360° (N) 13:08:45 29.354- 29.394
Gurwin Techsat 1B 26 Jul 12:58:08 13:00:51 14° 53° (NE) 13:03:34 435.225
NANOSAT C BR1 26 Jul 12:58:42 13:02:34 35° 263° (W) 13:06:30 145.865
VELOX 1 26 Jul 13:00:26 13:04:30 34° 97° (E) 13:08:33 145.980
SPROUT 26 Jul 13:03:12 13:06:19 19° 91° (E) 13:09:23 437.525
DUCHIFAT 1 26 Jul 13:03:30 13:07:19 33° 264° (W) 13:11:12 145.980
CUBEBUG 1 26 Jul 13:03:58 13:08:10 42° 98° (E) 13:12:21 437.445
M-CUBED/EXP-1 PRIME 26 Jul 13:09:25 13:13:18 27° 302° (WNW) 13:17:14 437.505
AO-7 26 Jul 13:11:29 13:15:05 14° 31° (NNE) 13:18:42 29.400- 29.500
QB50P1 26 Jul 13:21:28 13:24:41 21° 268° (W) 13:27:56 145.935-145.965
BUGSAT 1 26 Jul 13:21:35 13:25:29 44° 261° (W) 13:29:29 437.445
Oscar 19 26 Jul 13:21:54 13:26:36 39° 66° (ENE) 13:31:21 437.125/150
YUBILEINY 26 Jul 13:27:01 13:33:19 21° 306° (NW) 13:39:42 435.215
POPSAT HIP 1 26 Jul 13:28:08 13:31:07 18° 269° (W) 13:34:07 437.405
JAS-2 26 Jul 13:29:06 13:35:04 65° 258° (WSW) 13:40:28 435.910
AUBIESAT-1 26 Jul 13:36:48 13:40:03 19° 306° (NW) 13:43:18 437.475
AIST 1 26 Jul 13:40:56 13:44:10 22° 87° (E) 13:47:26
50 SAT 26 Jul 13:43:13 13:46:49 75° 286° (WNW) 13:50:24 437.505
Cosmos 2504 26 Jul 13:44:18 13:52:23 38° 294° (WNW) 14:00:26 435.465 / 435.565
AISAT 26 Jul 13:44:57 13:49:26 85° 284° (WNW) 13:53:54 437.250
DX 1 26 Jul 13:47:48 13:52:11 74° 104° (ESE) 13:56:34 434.975-435.025
QB50P2 26 Jul 13:51:10 13:52:09 11° 273° (W) 13:53:09 145.880/145.840
POLYITAN 1 26 Jul 13:53:57 13:54:48 10° 274° (W) 13:55:40 437.675
TISAT 1 26 Jul 14:01:52 14:04:57 19° 92° (E) 14:08:01 437.305
UKube-1 26 Jul 14:03:09 14:07:31 84° 104° (ESE) 14:11:51 .
SO-50 26 Jul 14:09:42 14:11:16 11° 3° (N) 14:12:50 436.795
ESTCUBE 1 26 Jul 14:16:51 14:20:41 29° 295° (WNW) 14:24:31 437.505/2401.250
Gurwin Techsat 1B 26 Jul 14:34:38 14:39:56 75° 72° (ENE) 14:45:17 435.225
AO-85 26 Jul 14:36:56 14:41:34 31° 116° (ESE) 14:46:02 145.980
VELOX 1 26 Jul 14:37:02 14:40:54 30° 295° (WNW) 14:44:45 145.980
SPROUT 26 Jul 14:38:21 14:42:32 50° 289° (WNW) 14:46:43 437.525
CUBEBUG 1 26 Jul 14:40:44 14:44:14 24° 296° (WNW) 14:47:46 437.445
ITAMSAT 1 26 Jul 14:54:10 14:59:05 43° 66° (ENE) 15:04:00 435.822/435.867
Cosmos 2499 26 Jul 14:56:46 15:01:30 16° 72° (ENE) 15:06:09 435.465 / 435.565
AO-7 26 Jul 14:58:02 15:05:39 41° 55° (NE) 15:13:17 29.400- 29.500
Oscar 19 26 Jul 15:01:25 15:06:00 32° 265° (W) 15:10:37 437.125/150
RS-15 26 Jul 15:01:38 15:13:34 52° 32° (NNE) 15:25:33 29.354- 29.394
CUSAT 1 26 Jul 15:13:06 15:15:42 34° 76° (ENE) 15:18:46 437.405
SWISSCUBE 26 Jul 15:13:55 15:17:48 24° 93° (E) 15:21:39 437.505
AIST 1 26 Jul 15:17:33 15:21:32 39° 286° (WNW) 15:25:34
AISAT 26 Jul 15:23:21 15:25:13 12° 304° (NW) 15:27:05 437.250
DX 1 26 Jul 15:25:18 15:27:51 15° 302° (WNW) 15:30:23 434.975-435.025
DANDE 26 Jul 15:29:31 15:30:54 13° 68° (ENE) 15:32:18 436.750
GONETS M04 26 Jul 15:35:03 15:42:42 37° 84° (E) 15:50:23
BEESAT 26 Jul 15:35:05 15:39:27 34° 97° (E) 15:43:45 436.000
TISAT 1 26 Jul 15:36:44 15:40:52 48° 290° (WNW) 15:44:57 437.305
UKube-1 26 Jul 15:40:50 15:42:57 14° 303° (WNW) 15:45:04 .
SO-50 26 Jul 15:50:06 15:53:35 20° 27° (NNE) 15:57:01 436.795
ITUPSAT 1 26 Jul 15:57:30 16:02:11 53° 100° (E) 16:06:50 437.325
AO-85 26 Jul 16:16:41 16:21:54 54° 314° (NW) 16:26:51 145.980
Gurwin Techsat 1B 26 Jul 16:17:01 16:20:29 17° 271° (W) 16:23:59 435.225
HORYU 2 26 Jul 16:20:55 16:23:59 18° 59° (ENE) 16:27:04 437.375
MOZHAYETS 4 26 Jul 16:23:39 16:26:23 15° 89° (E) 16:29:06
ITAMSAT 1 26 Jul 16:34:05 16:38:40 30° 265° (W) 16:43:17 435.822/435.867
Cosmos 2499 26 Jul 16:44:15 16:53:02 67° 93° (E) 17:01:34 435.465 / 435.565
AO-7 26 Jul 16:49:56 16:58:10 59° 257° (WSW) 17:06:27 29.400- 29.500
SWISSCUBE 26 Jul 16:51:15 16:55:49 46° 292° (WNW) 17:00:20 437.505
NOAA 15 26 Jul 16:53:13 16:55:24 13° 51° (NE) 16:57:36 137.62
CUSAT 1 26 Jul 16:57:07 16:57:32 10° 267° (W) 16:57:57 437.405
NOAA 18 26 Jul 17:00:32 17:02:56 13° 50° (NE) 17:05:22 137.9125
DANDE 26 Jul 17:11:49 17:13:40 17° 266° (W) 17:15:33 436.750
BEESAT 26 Jul 17:12:56 17:17:13 33° 295° (WNW) 17:21:27 436.000
RS-15 26 Jul 17:14:42 17:26:56 72° 240° (WSW) 17:39:03 29.354- 29.394
KKS-1 26 Jul 17:29:59 17:34:27 59° 102° (ESE) 17:38:53 437.445
SO-50 26 Jul 17:30:10 17:34:52 75° 50° (NE) 17:39:25 436.795
GONETS M04 26 Jul 17:30:35 17:39:08 59° 286° (WNW) 17:47:46
ITUPSAT 1 26 Jul 17:36:00 17:39:42 23° 299° (WNW) 17:43:23 437.325
GOMX 1 26 Jul 17:39:27 17:41:11 12° 56° (NE) 17:42:56 467.674
CUBESAT XI-V 26 Jul 17:41:34 17:43:38 13° 87° (E) 17:45:41 437.345
Cubesat XI-IV 26 Jul 17:44:04 17:48:19 24° 59° (ENE) 17:52:33 437.490
HORYU 2 26 Jul 17:55:39 18:00:06 62° 258° (WSW) 18:04:36 437.375
MOZHAYETS 4 26 Jul 17:59:28 18:04:02 68° 287° (WNW) 18:08:34
AO-85 26 Jul 17:59:58 18:03:24 18° 335° (NNW) 18:06:43 145.980
CUTE-I 26 Jul 18:07:09 18:12:01 36° 64° (ENE) 18:16:53 437.470
BRITE-PL 26 Jul 18:09:16 18:13:13 44° 70° (ENE) 18:17:13 437.365/2234.400
STARS 26 Jul 18:10:33 18:15:01 78° 103° (ESE) 18:19:28 437.465
LilacSat-2 26 Jul 18:19:46 18:23:15 32° 69° (ENE) 18:26:46 437.200
NOAA 15 26 Jul 18:29:03 18:34:15 67° 71° (ENE) 18:39:28 137.62
NOAA 18 26 Jul 18:37:06 18:42:34 63° 70° (ENE) 18:48:04 137.9125
Cosmos 2499 26 Jul 18:38:54 18:46:46 34° 295° (WNW) 18:54:28 435.465 / 435.565
BEESAT 3 26 Jul 18:45:57 18:47:18 12° 110° (ESE) 18:48:39 437.485
AO-7 26 Jul 18:49:43 18:52:48 12° 278° (W) 18:55:53 29.400- 29.500
HO-68 26 Jul 19:04:56 19:10:46 28° 54° (NE) 19:16:38 435.675
KKS-1 26 Jul 19:07:27 19:10:38 19° 300° (WNW) 19:13:47 437.445
DOVE 4 26 Jul 19:10:31 19:14:35 41° 68° (ENE) 19:18:53 437.250
PHONESAT 2.4 26 Jul 19:11:28 19:13:12 14° 165° (SSE) 19:14:56 2401.200-2431.200
SO-50 26 Jul 19:11:48 19:14:46 17° 249° (WSW) 19:17:40 436.795
GOMX 1 26 Jul 19:14:22 19:18:33 88° 256° (WSW) 19:22:57 467.674
CUBESAT XI-V 26 Jul 19:17:00 19:21:38 82° 284° (WNW) 19:26:15 437.345
CANX-2 26 Jul 19:19:46 19:22:23 16° 60° (ENE) 19:25:00 2200.000
Cubesat XI-IV 26 Jul 19:22:41 19:27:59 61° 258° (WSW) 19:33:21 437.490
PCSat 26 Jul 19:25:46 19:29:02 16° 105° (ESE) 19:32:20 145.827
CINEMA 3 26 Jul 19:27:14 19:30:45 22° 61° (ENE) 19:34:24 145.822/145.860
RS-15 26 Jul 19:29:05 19:37:08 21° 264° (W) 19:45:08 29.354- 29.394
CUTE 1.7 + AOD 2 26 Jul 19:32:53 19:35:51 19° 62° (ENE) 19:38:50 437.475
GONETS M04 26 Jul 19:33:31 19:38:16 15° 312° (NW) 19:43:04
YUBILEINY 26 Jul 19:36:00 19:41:33 18° 51° (NE) 19:47:04 435.215
MOZHAYETS 4 26 Jul 19:39:32 19:40:20 10° 306° (NW) 19:41:08
AO-85 26 Jul 19:44:24 19:45:50 11° 360° (N) 19:47:15 145.980
CUTE-I 26 Jul 19:47:01 19:52:01 38° 263° (W) 19:57:03 437.470
STARS 26 Jul 19:48:17 19:50:49 15° 302° (WNW) 19:53:20 437.465
BRITE-PL 26 Jul 19:49:02 19:52:01 19° 269° (W) 19:55:01 437.365/2234.400
LilacSat-2 26 Jul 19:54:27 19:57:36 24° 266° (W) 20:00:49 437.200
